Content
SEND FEEDBACK

Daily
Averages
Monthly
Summary
United States of America

BOYKINS, VIRGINIA


Home > North America > United States > Virginia
Elevation: 4 feet     Latitude: 36 35N     Longitude: 077 12W

WEATHER
 
SELECT A DAY
Number of Records: 300,466;   Date Range: 2/28/02 - 10/19/14
 
SHARE

PRINT THIS DATA

[ ← Previous Day ]
WEATHER ALMANAC - FEBRUARY 13, 2013
[ Next Day → ]
[ °C ]   °F
Weather ElementAverageHighLow
Temperature44.5 °F50 °F (12:55 am)37.4 °F (11:55 pm)
Dewpoint43.4 °F44.6 °F (8:15 am)35.6 °F (12:55 am)
Humidity96 %100 % (2:55 am)58 % (12:55 am)
Barometer29.78 in29.96 in (12:35 am)29.64 in (2:35 pm)
Wind Speed2.1 mph10.4 mph (10:55 pm)
Wind Gust25.3 mph (10:55 pm)
Weather ElementAverage
Visibility7.4 mi
Wind DirectionENE (77.2 °)

Weather ElementTotal
Precipitation0.33 in
Heating Degree Days21.3 (Base 65)
Averaged from 71 records on February 13, 2013
WEATHER CONDITIONS BREAKOUT
WIND DIRECTION BREAKOUT
WEATHER BY HOUR - FEBRUARY 13, 2013
[ °C ]   °F
Local TimeTemperatureDewpointHumidityBarometerVisibilityWind DirectionWind SpeedGust SpeedPrecipitationEventsConditions
12:35 AM44.6 °F37.4 °F76 %29.96 in10.0 miCalmOvercast
12:55 AM50.0 °F35.6 °F58 %29.95 inSSW (200°)6.9 mphRainRain
1:15 AM50.0 °F37.4 °F62 %29.96 in10.0 miSSE (160°)5.8 mph
1:35 AM46.4 °F39.2 °F76 %29.96 in10.0 miSW (220°)4.6 mph0.01 in
1:55 AM44.6 °F41.0 °F87 %29.93 in10.0 miCalm0.01 in
2:15 AM44.6 °F42.8 °F93 %29.93 in10.0 miCalmMostly Cloudy
2:35 AM44.6 °F42.8 °F93 %29.89 in10.0 miCalmOvercast
2:55 AM42.8 °F42.8 °F100 %29.88 in10.0 miCalmOvercast
3:15 AM44.6 °F42.8 °F93 %29.88 in10.0 miCalmOvercast
3:35 AM44.6 °F42.8 °F93 %29.87 in10.0 miCalmOvercast
3:55 AM44.6 °F42.8 °F93 %29.88 in10.0 miCalmOvercast
4:15 AM44.6 °F42.8 °F93 %29.86 in10.0 miCalmOvercast
4:35 AM44.6 °F42.8 °F93 %29.86 in10.0 miCalmMostly Cloudy
4:55 AM44.6 °F42.8 °F93 %29.85 in10.0 miCalmOvercast
5:15 AM44.6 °F42.8 °F93 %29.85 in10.0 miCalmOvercast
5:35 AM44.6 °F42.8 °F93 %29.84 in10.0 miCalmOvercast
5:55 AM44.6 °F42.8 °F93 %29.84 in10.0 miCalmOvercast
6:15 AM44.6 °F42.8 °F93 %29.85 in7.0 miCalm0.01 inRainRain
6:35 AM42.8 °F42.8 °F100 %29.84 in10.0 miCalm0.04 inRainLight Rain
6:55 AM42.8 °F42.8 °F100 %29.83 in10.0 miESE (120°)3.5 mph0.04 inRainLight Rain
7:15 AM42.8 °F42.8 °F100 %29.86 in10.0 miCalm0.01 inRainLight Rain
7:35 AM42.8 °F42.8 °F100 %29.86 in10.0 miCalm0.01 inRainLight Rain
7:55 AM42.8 °F42.8 °F100 %29.86 in7.0 miCalm0.02 in
8:15 AM44.6 °F44.6 °F100 %29.86 in10.0 miCalmRainLight Rain
8:35 AM44.6 °F44.6 °F100 %29.87 in10.0 miCalmRainLight Rain
8:55 AM44.6 °F44.6 °F100 %29.86 in10.0 miSE (130°)3.5 mph0.01 inRainLight Rain
9:15 AM44.6 °F44.6 °F100 %29.87 in10.0 miSouth (170°)3.5 mphOvercast
9:35 AM44.6 °F44.6 °F100 %29.85 in7.0 miCalmRainRain
9:55 AM44.6 °F44.6 °F100 %29.85 in7.0 miSSW (200°)4.6 mphLight Drizzle
10:15 AM44.6 °F44.6 °F100 %29.84 in5.0 miSouth (190°)3.5 mphRainRain
10:35 AM44.6 °F44.6 °F100 %29.83 in3.0 miCalm0.01 inDrizzle
10:55 AM44.6 °F44.6 °F100 %29.80 in3.0 miCalm0.01 inDrizzle
11:15 AM44.6 °F44.6 °F100 %29.82 in3.0 miCalmRainLight Rain
11:35 AM44.6 °F44.6 °F100 %29.80 in2.5 miCalm0.01 inRainLight Rain
11:55 AM44.6 °F44.6 °F100 %29.78 in7.0 miEast (100°)6.9 mph0.01 inOvercast
12:15 PM44.6 °F44.6 °F100 %29.76 in10.0 miEast (90°)3.5 mphOvercast
12:35 PM46.4 °F44.6 °F93 %29.73 in10.0 miEast (90°)4.6 mphOvercast
12:55 PM46.4 °F44.6 °F93 %29.72 in10.0 miEast (90°)3.5 mphOvercast
1:15 PM46.4 °F44.6 °F93 %29.68 in10.0 miEast (80°)4.6 mphOvercast
1:35 PM46.4 °F44.6 °F93 %29.70 in10.0 miCalmOvercast
1:55 PM46.4 °F44.6 °F93 %29.66 in10.0 miENE (70°)6.9 mphOvercast
2:15 PM44.6 °F44.6 °F100 %29.67 in7.0 miCalmOvercast
2:35 PM44.6 °F44.6 °F100 %29.64 in3.0 miEast (90°)3.5 mphRainLight Rain
2:55 PM44.6 °F44.6 °F100 %29.65 inCalmDrizzle
3:15 PM44.6 °F44.6 °F100 %29.66 in1.2 miCalmHeavy Drizzle
3:35 PM44.6 °F44.6 °F100 %29.66 in2.0 miCalm0.01 inDrizzle
3:55 PM44.6 °F44.6 °F100 %29.65 in2.5 miCalm0.01 inRainLight Rain
4:15 PM44.6 °F44.6 °F100 %29.65 in1.5 miCalm
4:35 PM44.6 °F44.6 °F100 %29.65 in1.2 miCalm0.01 inHeavy Drizzle
4:55 PM44.6 °F44.6 °F100 %29.64 in2.5 miCalm0.02 inRainRain
5:15 PM44.6 °F44.6 °F100 %29.65 inCalmRainLight Rain
5:35 PM44.6 °F44.6 °F100 %29.64 in2.5 miCalm0.01 inRainLight Rain
5:55 PM44.6 °F44.6 °F100 %29.65 in2.5 miCalm0.01 inRainLight Rain
6:15 PM44.6 °F44.6 °F100 %29.66 in2.0 miCalm0.01 in
6:35 PM44.6 °F44.6 °F100 %29.66 in2.5 miCalm0.01 inRainLight Rain
6:55 PM44.6 °F44.6 °F100 %29.68 in2.5 miCalm0.01 inRainLight Rain
7:15 PM44.6 °F44.6 °F100 %29.68 in3.0 miCalmRainLight Rain
7:35 PM44.6 °F44.6 °F100 %29.67 in3.0 miEast (90°)3.5 mph0.01 inOvercast
7:55 PM44.6 °F44.6 °F100 %29.68 in4.0 miWest (260°)3.5 mph0.01 inOvercast
8:15 PM44.6 °F44.6 °F100 %29.68 in5.0 miWSW (250°)5.8 mphOvercast
8:35 PM44.6 °F44.6 °F100 %29.69 in10.0 miWSW (250°)5.8 mphOvercast
8:55 PM44.6 °F44.6 °F100 %29.70 in10.0 miWSW (250°)5.8 mphOvercast
9:15 PM44.6 °F44.6 °F100 %29.71 inWSW (240°)5.8 mphOvercast
9:35 PM44.6 °F44.6 °F100 %29.71 in10.0 miSW (230°)4.6 mphOvercast
9:55 PM44.6 °F44.6 °F100 %29.73 in10.0 miWSW (240°)5.8 mphOvercast
10:15 PM44.6 °F44.6 °F100 %29.73 in10.0 miWest (260°)3.5 mphOvercast
10:35 PM44.6 °F44.6 °F100 %29.74 in7.0 miWest (270°)6.9 mphDrizzle
10:55 PM42.8 °F41.0 °F93 %29.77 in10.0 miWNW (290°)10.4 mph25.3 mph0.01 inOvercast
11:15 PM41.0 °F39.2 °F93 %29.78 in10.0 miWest (280°)6.9 mphMostly Cloudy
11:35 PM39.2 °F37.4 °F93 %29.79 in10.0 miWNW (290°)5.8 mphScattered Clouds
11:55 PM37.4 °F37.4 °F100 %29.81 in10.0 miWest (280°)5.8 mphClear
Hourly data recorded from KEMV, located miles away from Boykins, Virginia







STORIES FROM OUR PARTNERS